RH
15 17 19 20 21 21 22 21 22 21 21 23 23 24 25 24 24 29 32 30 29 25 27 32 28 28 32 26 26 32 31 29 28 27 26 26 28 29 30 30 29 28 29 30 30 31 33 32 30 27 26 26 26 26 27 28 28 28 28 27 26 26 26 25 23 21 20 20 22 24 26 26 22 19 18 18 20 21 20 23 38 66 88 93 91 90
18 19 20 21 21 21 21 21 21 21 22 23 24 24 25 27 24 27 32 29 28 26 23 29 27 26 36 33 28 31 30 30 29 28 29 31 33 34 34 34 33 33 34 35 36 37 39 38 36 33 31 30 29 28 29 29 30 31 31 31 32 32 32 31 30 28 26 24 22 22 24 27 28 25 21 19 20 23 25 23 23 36 63 88 98 98
17 18 19 19 19 20 21 22 23 24 25 25 25 25 26 28 22 22 28 29 32 33 27 28 26 26 34 35 31 31 31 33 32 32 36 37 38 39 40 40 39 39 39 41 42 43 42 40 39 39 37 36 34 33 32 32 31 30 30 31 34 36 37 37 36 35 34 32 30 27 25 25 28 30 28 24 21 22 26 30 28 25 33 55 78 94
16 17 17 18 18 19 21 22 24 26 28 28 28 28 27 27 26 24 24 26 33 39 37 34 29 27 33 35 32 32 34 35 35 39 45 46 46 45 44 46 46 46 46 46 46 45 43 41 41 41 40 38 37 35 34 33 32 30 29 30 32 34 36 37 37 37 36 35 35 35 33 29 27 29 32 31 27 24 24 28 33 32 27 30 45 67
17 17 17 18 18 20 22 23 24 25 28 29 29 30 29 29 32 35 33 30 30 36 40 38 32 28 31 35 35 34 39 43 46 51 54 52 49 46 46 48 48 48 49 48 46 45 44 44 44 43 42 40 38 36 35 33 32 30 29 29 30 31 33 34 34 34 33 32 32 32 33 33 31 28 29 32 33 31 28 26 29 33 33 29 28 38
18 18 19 21 20 23 25 25 26 27 29 31 32 32 34 35 37 41 41 35 30 32 38 40 35 30 29 39 48 46 48 54 55 56 56 52 49 49 52 52 50 47 47 47 46 47 47 47 46 44 42 41 39 38 35 33 32 30 29 28 27 27 29 29 29 28 26 25 25 25 26 28 30 30 29 30 32 34 35 33 29 28 32 34 30 29
19 20 23 24 24 26 29 30 30 30 31 34 34 32 35 39 40 41 38 36 34 34 40 45 44 37 30 43 60 57 55 57 56 56 56 55 55 57 59 57 53 50 50 51 51 52 53 51 48 45 43 42 40 37 33 30 28 25 23 22 22 22 22 22 22 22 21 21 21 21 22 23 25 28 29 29 30 31 33 36 37 33 30 31 31 31
23 25 28 29 30 31 32 33 32 31 31 33 33 33 35 37 37 38 36 37 38 38 44 54 62 56 40 46 62 59 57 62 64 65 65 62 62 62 62 58 55 54 55 57 57 56 56 52 48 44 41 38 35 31 26 23 20 19 19 19 19 19 19 19 18 17 17 17 17 17 17 19 20 21 22 24 25 26 29 31 35 37 36 32 30 30
27 27 29 29 31 32 33 32 32 32 31 32 32 32 35 36 36 38 37 39 41 42 48 55 67 68 49 47 61 62 67 76 75 75 73 72 73 68 62 59 60 61 61 60 56 54 52 48 42 38 35 30 26 22 19 18 18 19 19 20 19 17 17 18 18 22 24 23 22 19 16 14 13 14 15 17 18 19 22 25 28 33 37 38 35 30
26 26 27 29 30 31 32 32 32 34 33 33 33 33 35 38 39 40 41 43 44 47 54 56 65 71 55 44 51 63 79 85 80 78 77 77 75 68 62 61 61 61 59 55 49 45 42 37 33 30 27 22 18 16 17 19 21 20 19 19 17 19 29 39 46 53 56 55 51 44 38 30 22 19 17 16 16 15 16 19 22 25 30 36 39 37
26 27 29 29 29 31 32 32 35 36 36 36 36 37 38 40 43 45 46 48 47 47 56 61 64 68 61 48 47 63 78 79 77 78 74 70 66 62 60 58 55 53 49 44 39 36 33 30 28 25 20 19 17 16 17 19 20 19 18 20 26 42 63 72 75 78 77 75 74 70 65 57 46 39 34 29 24 20 17 16 16 19 22 27 35 39
28 29 30 28 29 31 31 32 36 38 39 40 42 44 42 40 41 43 43 43 42 42 47 55 56 57 59 57 57 67 71 67 67 67 63 61 59 57 57 54 50 46 41 39 37 34 30 26 21 16 14 15 13 13 16 18 20 19 23 37 55 73 83 80 78 81 80 79 83 84 80 75 67 58 52 48 42 36 30 23 18 16 17 19 26 33
28 28 28 28 30 32 32 34 38 41 43 45 47 50 48 45 41 40 42 43 42 40 42 49 49 50 56 60 67 71 66 60 60 61 60 58 57 56 54 49 43 38 38 43 42 34 25 18 15 12 10 10 12 17 21 25 29 33 47 70 83 85 82 78 76 77 79 82 84 89 89 85 82 76 70 64 57 51 46 39 31 23 18 16 17 22
28 29 30 32 34 35 37 41 42 45 48 50 54 58 60 61 57 56 58 58 52 42 42 47 51 61 67 66 72 72 64 61 60 61 61 58 57 55 47 40 34 29 29 30 26 20 15 13 12 8 9 22 32 34 34 39 47 56 74 91 91 85 83 80 77 76 81 84 84 88 93 93 93 91 90 87 79 71 61 51 44 35 27 21 16 15
30 35 36 37 39 40 44 45 45 50 53 54 60 67 71 73 73 74 74 75 70 53 47 51 54 69 79 74 74 69 61 64 64 60 61 60 56 49 38 31 26 21 18 15 13 12 12 11 13 17 31 54 61 52 48 54 64 76 90 96 90 86 84 80 79 80 81 83 85 90 94 97 101 101 100 102 100 96 87 75 59 44 35 28 20 16
29 38 41 41 44 45 45 46 48 53 55 55 60 67 72 75 79 79 77 83 85 65 53 57 55 62 74 73 68 64 64 70 68 63 63 59 51 41 31 23 17 14 13 12 12 12 10 10 19 35 56 72 71 64 62 67 80 95 101 98 92 86 80 75 74 72 71 75 81 89 93 94 99 101 100 100 103 104 101 95 78 60 51 43 33 25
26 36 42 42 44 46 46 49 51 54 57 58 61 69 75 78 82 82 76 77 79 66 55 60 62 63 72 75 70 68 72 73 69 65 61 53 45 36 25 17 14 13 13 12 14 13 12 21 37 51 61 67 69 72 75 80 94 105 103 99 96 87 76 70 67 65 66 69 75 87 95 91 88 93 96 95 98 98 92 88 82 74 73 68 57 49
26 32 41 43 45 49 50 52 53 55 63 66 67 74 78 78 80 86 86 78 72 66 58 60 67 70 75 81 79 76 75 71 68 66 58 46 38 28 18 14 14 13 13 13 14 14 20 45 68 69 67 70 71 79 88 90 95 100 99 100 98 89 78 71 70 71 72 71 73 85 96 92 84 85 90 92 95 94 89 87 84 80 84 85 77 69
30 31 39 45 47 51 55 57 58 61 68 72 73 76 80 82 83 88 97 91 80 77 71 64 63 68 79 85 83 80 76 73 70 63 52 41 31 21 14 13 14 12 13 13 13 20 38 72 95 84 77 83 82 86 94 92 92 96 96 99 98 93 88 83 80 81 82 81 78 83 94 93 84 81 86 93 96 97 98 99 95 90 90 91 87 80
36 34 39 45 49 54 58 61 64 67 72 75 77 79 85 92 91 89 98 103 97 92 90 80 63 63 84 91 86 82 76 72 69 58 48 37 24 17 13 13 13 12 13 12 16 31 52 81 100 91 87 95 93 91 93 90 93 96 95 96 98 99 98 96 93 89 89 89 85 87 95 94 88 82 84 91 95 99 103 104 101 98 98 97 94 90
39 39 39 44 49 54 58 61 66 71 76 79 80 83 89 96 96 93 96 103 104 100 104 100 71 61 85 93 86 84 75 70 66 53 42 32 19 15 13 13 14 10 12 16 24 44 62 77 89 92 97 102 99 94 92 91 92 93 93 93 93 97 99 100 99 95 94 92 86 90 98 98 94 87 83 87 92 95 102 105 104 102 103 105 103 98
37 41 43 45 50 53 58 65 69 71 77 82 82 85 94 101 101 99 97 94 96 98 104 102 75 64 88 95 85 83 76 68 60 46 36 27 16 14 13 12 12 9 15 26 39 59 74 74 74 82 94 98 93 88 85 86 86 86 91 94 91 94 98 100 100 100 100 95 88 91 98 99 96 90 85 87 91 94 100 104 105 104 102 102 105 103
37 41 45 47 53 59 64 69 70 71 78 84 85 88 98 103 101 102 102 96 94 91 87 82 67 62 84 92 82 79 73 62 52 40 31 22 14 14 13 10 9 10 22 43 60 75 83 78 70 73 86 93 89 86 84 85 84 83 87 93 95 95 97 101 102 101 100 96 93 97 98 95 94 91 89 90 93 95 99 102 103 103 99 93 94 97
40 45 48 49 52 57 62 67 67 67 77 89 95 98 102 105 102 101 103 102 101 95 83 76 64 58 74 85 78 75 67 53 44 35 25 18 14 13 11 7 7 15 34 58 76 88 93 91 81 73 79 89 90 89 89 88 85 83 86 90 94 98 100 102 102 102 101 97 96 101 100 94 91 89 89 91 93 93 95 99 101 100 100 95 89 88
43 49 55 58 58 57 60 68 69 67 77 93 103 105 102 103 104 103 103 102 102 96 88 87 73 60 73 84 75 68 58 44 39 32 22 17 14 12 8 5 9 24 46 66 83 95 99 100 94 84 81 86 87 85 86 86 84 84 87 90 92 96 101 103 103 103 104 101 100 102 102 96 90 88 88 87 87 88 88 91 95 97 98 97 94 91
46 53 61 68 73 73 74 82 85 83 86 92 98 103 104 103 103 103 104 103 99 87 82 93 89 71 76 83 70 58 49 39 34 28 20 16 14 10 6 4 14 36 57 73 89 101 104 103 102 97 92 90 88 87 85 85 83 82 84 89 92 95 98 102 102 99 100 103 103 102 100 95 90 90 90 86 83 82 82 83 86 90 92 92 92 92
47 54 62 70 82 87 87 92 97 95 91 89 90 98 105 103 98 99 102 100 96 82 70 85 95 83 80 81 65 52 45 38 33 26 19 16 13 8 3 6 22 48 69 83 95 101 101 100 97 94 93 91 89 90 90 88 87 85 83 84 88 91 94 97 95 91 92 96 100 103 100 93 89 89 89 88 85 80 78 78 79 81 85 85 85 86
48 56 63 71 84 91 90 94 97 94 92 91 91 97 102 98 91 96 103 98 90 81 69 73 84 81 77 72 59 48 42 37 31 24 19 16 13 7 4 11 30 54 72 83 88 90 88 85 81 79 80 79 77 78 81 85 87 88 85 84 84 86 89 90 86 86 90 91 92 99 99 93 90 89 85 82 83 82 78 75 74 74 76 77 79 82
48 56 61 68 83 92 91 92 93 91 92 94 96 96 92 90 90 96 105 103 94 89 83 78 79 78 73 64 52 44 39 34 29 23 18 16 13 6 5 20 40 58 71 78 81 85 85 83 80 80 79 79 78 78 79 82 86 87 88 90 91 92 96 95 89 90 99 98 91 92 91 87 87 88 86 81 80 82 81 76 72 70 69 71 73 76
48 57 61 63 77 89 88 89 93 91 89 91 92 88 83 88 95 95 99 105 100 93 93 91 85 80 73 62 51 43 37 33 28 22 17 15 12 6 10 27 45 58 69 79 86 91 94 94 95 95 95 95 94 93 92 90 87 85 86 90 95 99 103 105 100 99 105 105 97 92 85 82 83 85 87 86 82 82 82 78 72 67 66 67 66 67
47 57 62 59 67 81 85 87 92 91 88 87 84 84 89 95 96 93 96 102 96 86 88 91 86 78 70 60 51 43 36 30 26 21 18 16 13 10 18 32 45 59 73 84 93 98 100 101 103 104 105 102 98 97 95 93 90 89 89 90 96 101 103 106 104 100 103 106 102 95 87 82 80 80 83 87 87 86 85 78 70 65 64 63 62 61
47 54 58 55 60 77 85 85 86 85 84 82 80 86 96 96 92 94 100 105 100 91 89 87 82 75 65 55 47 40 33 27 24 22 19 17 13 14 31 47 54 69 84 89 95 100 100 101 102 103 104 103 103 99 91 85 85 86 88 89 91 94 98 101 98 91 92 98 97 97 94 87 80 80 82 85 86 88 88 81 71 64 60 58 58 59
46 52 59 58 59 74 84 84 87 87 80 77 81 90 97 95 91 91 99 105 102 101 101 92 82 74 63 51 43 36 30 26 24 22 20 19 14 13 39 72 80 84 94 96 97 101 100 100 100 100 102 102 103 102 96 89 82 77 80 84 82 82 89 94 89 80 81 86 86 89 94 91 85 84 84 85 86 87 86 80 73 68 64 60 57 60
49 54 62 66 65 74 84 83 84 88 87 84 88 93 96 100 98 90 95 106 101 98 102 93 80 73 62 50 41 34 30 25 23 22 20 19 17 10 34 80 99 96 98 99 99 102 101 101 103 103 104 101 97 95 94 93 91 86 87 90 87 84 87 90 88 81 79 81 79 79 85 90 90 88 88 89 89 89 85 81 79 79 78 74 69 69
50 52 61 73 75 78 86 87 83 88 95 92 90 95 97 102 102 91 90 104 105 99 96 87 80 76 63 50 41 34 30 24 20 22 18 19 21 13 28 76 101 98 98 97 96 101 102 101 103 102 100 98 92 86 85 87 93 97 99 99 98 96 94 95 96 93 87 82 80 78 80 88 93 93 92 92 91 91 90 89 91 94 94 91 88 86
51 54 64 77 80 78 83 88 88 90 93 88 90 100 101 100 104 96 88 99 107 102 96 89 83 74 59 47 40 34 30 24 18 19 18 20 24 15 29 78 102 95 97 101 97 100 102 102 103 101 96 95 92 88 91 95 99 101 103 104 104 103 103 103 102 103 99 90 84 83 84 92 98 97 94 94 94 94 95 98 103 106 103 99 96 94
53 60 67 75 81 82 84 86 87 87 88 88 95 105 102 100 106 102 93 98 102 99 98 93 81 67 52 44 39 32 29 23 17 17 15 17 21 15 28 77 108 101 98 104 101 100 104 103 103 103 101 100 97 93 95 100 101 101 102 103 103 103 104 105 103 103 102 93 88 92 94 97 102 101 98 96 95 96 100 103 105 105 103 101 99 98
53 60 67 75 83 87 89 89 90 90 90 93 98 103 102 102 104 99 91 95 100 100 97 88 74 61 49 41 37 32 27 22 17 16 14 13 18 14 17 56 102 109 101 103 101 97 101 104 102 103 104 103 102 99 95 95 97 95 96 102 104 102 101 103 105 105 100 93 95 102 103 102 104 103 100 98 99 100 101 101 102 102 101 95 87 78
50 57 66 76 85 91 93 95 98 99 97 97 99 101 103 102 100 95 88 90 99 100 94 80 67 57 47 39 36 31 26 22 17 15 15 13 16 17 11 29 73 101 102 103 104 99 100 104 102 102 103 103 103 100 94 93 92 87 90 100 103 102 102 102 104 105 101 98 102 106 107 106 103 101 101 101 102 101 101 102 101 95 82 66 52 42
51 60 70 79 88 96 95 93 99 103 101 98 99 101 100 96 94 94 92 93 98 97 89 78 64 53 44 38 34 29 24 23 19 16 17 15 14 19 16 16 49 91 101 98 101 101 101 104 104 101 101 101 101 99 97 97 91 83 89 101 101 99 101 102 102 104 103 101 103 105 107 106 102 102 103 102 101 102 102 97 84 66 49 39 36 38
53 61 72 79 88 98 98 93 95 100 101 99 100 102 100 92 89 93 97 101 101 94 84 73 60 48 42 37 31 28 24 22 20 17 17 18 14 17 18 13 37 86 107 99 99 103 101 102 104 102 101 101 100 100 101 100 93 84 87 97 101 101 104 105 104 103 101 101 102 105 107 105 103 104 104 103 104 99 85 68 52 42 40 41 47 56
55 61 73 82 89 98 101 99 97 98 101 101 98 97 98 97 96 98 101 103 101 92 79 67 54 44 40 35 29 26 23 20 21 18 17 19 16 16 18 12 23 69 103 101 99 104 102 102 104 102 101 101 101 102 102 101 98 94 92 96 102 105 105 103 101 100 101 102 103 103 105 104 104 107 106 101 90 71 52 45 44 45 50 56 64 72
59 64 75 86 94 99 102 103 102 102 102 102 99 96 99 103 103 103 103 101 96 87 73 60 50 42 37 32 25 23 21 18 20 19 16 18 17 15 19 15 16 55 97 102 98 102 102 102 104 103 100 100 100 102 102 99 100 101 100 101 103 104 103 101 101 102 102 102 102 102 104 106 107 105 93 74 56 46 48 55 57 57 62 71 79 82
61 68 76 87 98 103 104 103 102 103 103 102 103 102 102 103 102 102 104 100 90 79 66 54 47 40 34 29 22 19 19 17 18 18 16 17 17 15 18 15 13 46 92 105 100 103 102 100 103 103 101 101 101 101 101 97 97 100 102 103 103 103 103 104 103 104 103 102 102 102 104 106 99 82 61 48 48 58 67 68 64 65 74 85 89 88
62 69 76 86 95 98 102 104 102 103 105 104 104 104 103 103 103 102 103 97 85 73 60 50 44 37 30 25 19 16 17 16 17 19 17 17 18 15 17 16 11 39 88 107 103 104 103 100 102 103 102 101 100 100 100 97 99 101 102 103 105 104 105 104 102 103 103 102 102 103 103 96 74 52 47 57 70 79 78 71 67 70 81 92 96 95
63 68 74 85 90 87 90 98 99 99 102 101 102 103 101 102 104 102 99 91 78 67 56 47 41 34 26 21 17 15 16 17 18 19 16 17 19 15 16 15 10 35 83 105 103 104 103 100 102 103 102 101 101 102 101 99 101 104 104 106 107 104 104 104 102 102 103 102 102 102 93 72 51 50 68 85 91 91 84 76 74 82 93 100 101 99
65 69 72 81 89 86 87 92 94 97 101 102 102 102 101 100 100 98 93 83 70 61 52 43 37 29 21 18 15 14 16 16 17 18 15 16 17 15 17 15 9 35 82 104 103 105 105 101 103 103 101 101 101 101 101 99 101 104 106 108 106 102 104 107 104 102 103 103 102 95 75 53 51 70 91 100 103 100 89 76 75 86 98 103 102 101
66 70 71 77 87 91 91 91 90 92 100 104 104 103 102 99 95 91 85 75 64 55 47 40 33 24 17 15 14 14 15 15 16 17 15 16 16 14 16 14 9 35 83 104 103 105 102 97 100 103 102 101 101 100 100 99 100 103 104 104 103 101 102 105 103 102 103 102 96 80 58 48 60 81 95 101 104 99 87 77 73 77 90 103 105 101
68 71 73 77 85 91 94 94 91 89 94 102 102 101 101 99 92 85 77 67 58 51 42 35 27 19 15 14 13 14 14 13 15 16 14 16 16 13 16 14 9 35 83 104 104 106 103 97 99 103 102 101 101 100 101 100 99 101 101 100 101 100 100 102 103 102 101 96 84 65 51 53 67 81 89 93 92 84 74 69 71 78 92 104 96 78
70 73 75 78 86 95 100 102 99 96 97 101 101 100 100 96 88 80 72 63 56 47 38 30 22 14 13 13 13 15 14 13 15 15 14 16 16 14 16 12 9 38 86 105 103 103 102 99 102 104 101 100 101 100 100 100 99 100 100 100 100 100 100 102 101 99 95 85 68 56 55 62 70 77 77 76 80 84 78 71 78 93 100 95 76 55
72 77 80 82 88 98 103 104 103 102 102 101 100 100 98 91 83 76 68 60 52 42 33 25 17 12 11 11 13 16 15 13 15 14 14 16 15 14 17 11 11 44 88 105 103 101 99 99 104 103 99 100 102 100 99 100 99 100 100 100 100 100 102 102 100 98 89 70 57 59 65 65 67 72 68 62 73 95 101 93 96 102 94 77 61 52
Wind_Speed
31 31 32 33 34 34 34 34 34 35 35 36 37 37 38 38 38 39 41 42 42 42 41 43 45 46 49 48 47 49 52 53 55 56 58 60 63 65 66 67 68 70 71 73 73 74 76 78 79 79 79 80 80 80 81 82 83 84 84 85 85 85 85 85 85 85 85 85 85 85 84 84 83 83 83 83 84 85 84 83 81 78 77 77 77 78
31 32 32 33 33 34 34 34 35 35 35 36 36 37 38 38 37 38 41 42 43 43 42 44 46 47 50 53 52 53 55 55 57 60 62 64 67 69 70 71 73 74 76 77 78 79 80 82 83 84 85 86 86 86 86 87 88 88 88 88 88 87 87 86 86 86 86 87 87 87 87 87 86 86 86 85 85 86 87 86 85 83 82 80 79 79
32 32 32 33 33 34 34 34 34 35 35 36 37 37 38 39 38 37 39 42 45 46 46 47 48 49 52 55 55 55 57 59 61 64 67 69 71 72 74 76 77 79 80 81 83 84 84 84 85 87 88 89 90 90 91 92 93 93 93 92 92 91 91 90 90 90 90 89 89 90 90 90 89 88 88 88 87 87 87 88 89 88 86 85 84 82
32 32 32 32 33 33 33 33 34 34 35 37 38 39 39 40 41 40 39 41 45 48 50 50 49 50 54 56 56 57 60 62 65 68 71 73 74 75 77 79 81 82 84 85 86 87 87 87 88 89 91 92 93 94 95 97 99 100 99 98 97 97 97 97 96 96 96 95 93 93 93 93 93 92 90 89 89 89 89 89 90 90 90 88 87 86
32 32 33 33 33 33 33 33 34 35 36 38 39 40 41 42 44 45 45 44 45 47 51 53 52 51 54 59 60 61 64 67 69 71 73 74 76 78 80 82 83 84 86 87 88 89 90 91 92 93 95 97 98 100 101 102 103 103 101 99 99 99 98 98 98 97 98 97 96 96 95 95 95 95 95 93 91 91 92 92 92 92 92 91 89 88
32 33 34 34 35 36 35 36 37 38 39 40 41 42 43 44 45 46 47 48 47 48 51 55 56 53 54 62 66 65 68 69 69 70 72 75 77 80 82 84 85 86 86 88 89 91 93 94 95 96 98 100 102 103 103 103 103 102 100 98 97 95 94 93 92 92 93 93 93 93 93 94 94 95 96 97 95 93 93 94 95 94 94 94 92 90
34 34 35 35 38 38 38 40 40 41 41 42 43 44 45 46 47 47 47 49 50 51 53 56 60 58 57 62 66 67 69 69 69 72 74 77 79 81 83 84 86 87 88 90 92 92 94 96 98 100 101 101 102 103 103 101 100 98 95 92 90 87 85 84 83 83 83 84 84 85 86 88 90 91 93 96 98 98 95 94 95 97 97 96 95 93
36 36 37 38 40 41 41 42 42 43 44 45 46 47 47 47 47 48 48 50 52 53 55 56 58 60 59 61 66 67 68 70 72 74 77 79 81 82 83 85 87 89 90 92 93 93 94 96 99 100 101 100 100 100 100 98 95 91 87 83 80 78 76 75 74 72 71 71 73 74 76 78 81 84 87 90 94 97 99 97 95 96 98 98 97 96
39 39 40 41 42 43 43 45 45 46 47 47 48 48 49 49 49 50 50 52 53 55 56 56 57 61 61 61 66 69 70 72 75 76 78 79 80 83 85 87 89 91 91 91 92 92 93 97 100 101 100 99 98 96 93 90 87 83 79 75 72 69 64 61 59 58 57 57 59 61 64 67 69 72 76 80 84 89 94 98 98 97 97 99 100 99
42 43 43 44 44 44 45 46 47 48 49 49 51 51 51 52 52 52 52 53 53 54 56 57 60 64 63 60 64 70 71 74 76 78 79 78 80 85 89 90 91 91 91 92 93 94 96 99 101 101 100 97 93 88 85 82 79 75 71 66 61 54 48 45 44 44 44 46 48 49 51 54 56 58 62 66 70 75 82 88 93 96 97 98 100 101
44 44 44 45 46 46 47 48 49 50 51 52 53 53 52 52 52 51 52 53 53 53 56 58 60 64 66 63 65 69 71 73 75 76 77 80 83 87 89 91 92 93 93 94 95 96 97 98 97 96 93 89 84 79 76 73 70 65 59 53 45 39 36 36 36 37 38 40 41 42 44 45 45 47 49 52 55 60 66 73 81 87 92 95 98 100
46 47 48 50 50 50 51 51 51 52 53 53 54 55 54 53 52 53 53 54 55 55 55 58 60 63 65 67 68 69 70 72 73 75 77 82 85 87 89 92 94 96 95 93 92 93 94 93 92 88 82 78 74 69 65 61 56 50 44 39 34 32 32 33 32 33 35 35 36 38 39 39 40 41 42 45 47 49 53 58 65 73 81 87 93 97
50 51 53 54 53 53 54 53 52 52 53 54 55 56 57 57 57 58 58 57 56 55 55 57 61 63 65 68 70 70 71 72 74 77 81 84 87 90 92 93 92 91 89 88 88 88 89 87 85 79 73 69 64 59 54 47 41 36 33 31 31 31 31 31 30 31 32 32 33 34 35 36 36 38 39 41 43 45 47 50 54 59 66 74 82 89
53 53 54 54 54 55 54 54 54 54 55 56 57 58 59 61 62 62 62 61 60 58 58 59 62 65 67 68 69 70 72 74 76 80 83 86 89 92 92 90 88 86 84 84 84 83 82 80 77 72 65 59 54 49 44 36 31 29 28 29 30 30 30 30 30 30 30 31 31 31 32 33 34 35 37 38 40 42 45 47 49 51 55 61 68 76
56 54 54 54 54 54 54 54 55 55 56 57 57 59 60 61 62 63 64 64 66 66 64 63 64 68 71 70 69 71 73 76 79 82 84 87 88 89 88 86 86 85 84 84 82 79 75 70 67 64 57 49 45 43 36 30 28 27 26 29 30 29 29 29 31 31 30 31 31 30 30 30 31 32 34 36 37 39 42 44 47 48 49 52 56 62
57 54 54 55 54 54 55 56 56 55 56 57 57 58 59 60 61 62 63 64 68 70 68 67 66 68 69 68 69 73 74 77 81 84 86 87 87 86 86 87 87 86 85 82 77 73 68 62 59 56 50 43 41 38 32 27 27 26 27 29 29 29 30 30 32 32 31 31 31 32 32 31 30 30 31 33 34 36 39 42 44 45 45 47 48 51
59 55 53 55 55 55 57 56 56 56 57 58 58 58 58 59 61 63 64 64 67 70 70 69 70 70 70 69 71 75 77 79 83 86 87 88 88 88 87 86 85 84 82 77 71 66 61 56 52 49 45 41 38 34 29 26 27 28 28 29 29 30 31 32 34 35 35 34 33 34 34 33 31 30 31 32 32 35 38 41 43 43 43 44 43 44
61 57 54 55 55 55 57 57 58 58 58 59 59 58 59 60 62 64 66 66 68 71 71 70 72 74 72 70 74 77 80 83 85 86 88 90 91 90 88 85 82 79 76 70 64 59 54 48 46 44 40 37 34 31 29 28 28 29 29 28 29 32 34 35 36 38 39 39 37 35 35 34 32 31 31 31 32 33 36 38 40 41 41 41 41 40
61 61 56 55 56 56 56 58 59 60 59 60 61 61 61 62 63 64 65 67 70 73 75 73 74 75 73 72 77 81 83 86 88 89 91 91 90 89 87 84 80 76 71 64 58 53 47 43 42 42 38 35 33 30 29 30 30 31 30 29 30 33 36 38 40 41 42 41 39 35 34 33 32 30 30 30 30 31 33 35 37 38 39 39 39 39
60 62 60 57 57 56 56 57 59 60 59 60 61 63 63 63 64 64 63 65 68 73 77 77 77 77 73 75 81 84 86 89 90 92 92 90 88 86 84 82 78 73 66 59 53 48 43 39 40 41 38 35 33 32 31 32 33 33 33 31 31 33 36 39 42 44 43 42 39 36 33 32 31 29 29 29 29 30 31 32 35 36 37 37 38 38
60 62 62 60 58 57 58 58 59 59 60 60 61 63 63 63 64 64 62 62 66 72 76 78 81 78 74 78 83 85 88 90 91 92 92 90 87 84 82 78 73 67 60 53 48 44 41 39 39 40 39 37 36 34 34 34 35 35 35 34 34 34 37 40 43 45 45 41 37 34 32 31 30 29 28 29 30 30 29 31 33 35 35 36 37 38
63 62 63 63 61 60 59 59 60 61 61 61 62 62 62 62 63 65 64 63 65 69 73 78 82 80 77 81 83 85 88 90 89 90 90 88 85 82 80 75 68 61 52 47 43 41 39 38 38 38 38 39 38 37 37 37 37 37 36 36 36 36 39 41 43 44 43 40 35 32 31 30 29 28 28 28 29 29 29 30 32 34 35 35 36 37
65 64 64 65 63 62 61 60 63 64 64 63 64 63 62 62 64 66 67 67 66 68 71 76 81 80 78 82 84 86 89 89 89 89 87 85 83 81 77 70 62 54 45 41 39 38 37 38 38 38 38 39 40 39 39 39 39 39 37 37 37 38 39 40 41 42 41 37 34 32 31 30 29 28 27 27 27 28 29 30 32 33 35 36 36 36
66 65 66 66 65 63 61 60 62 64 64 63 64 64 63 63 65 66 67 69 70 71 73 77 81 81 80 82 85 87 89 88 88 87 84 82 82 79 72 64 56 48 41 38 37 36 36 38 39 39 38 39 40 40 40 40 40 39 39 38 38 38 38 37 37 38 38 36 34 33 33 31 29 27 26 26 27 28 29 30 32 33 34 35 35 35
66 66 66 66 67 68 65 62 63 64 63 61 62 64 64 63 65 66 66 69 72 73 75 78 83 84 82 83 86 88 89 88 87 84 81 80 80 76 68 58 49 43 39 38 37 36 36 37 39 39 39 39 40 40 40 40 40 40 40 40 39 37 36 35 35 35 35 36 35 34 34 33 30 27 26 26 27 29 30 30 32 32 33 34 33 33
67 67 66 64 65 68 68 65 65 66 65 62 61 63 64 64 65 67 68 70 72 75 75 77 82 86 84 84 87 89 89 89 86 82 78 78 77 70 61 52 44 39 38 38 38 38 37 37 38 38 39 39 39 39 39 39 39 40 40 40 40 38 36 35 35 34 33 34 35 35 34 33 31 28 27 27 27 29 30 30 32 33 33 34 33 33
68 68 67 65 62 64 66 63 63 65 65 64 62 62 63 64 66 68 69 69 72 77 77 76 80 86 86 86 89 90 89 88 86 81 78 77 73 64 53 46 40 37 37 38 38 39 39 39 39 39 39 38 38 38 38 39 39 40 39 39 39 38 38 37 37 36 34 34 34 35 35 35 32 30 28 28 27 28 29 30 31 32 34 34 34 33
70 69 69 67 61 61 63 62 62 65 65 63 63 62 62 65 67 68 67 68 71 77 80 78 80 85 87 88 90 90 88 87 84 79 77 76 69 58 47 39 35 34 34 35 35 37 38 39 40 40 40 41 41 40 41 41 41 40 40 39 39 39 39 40 40 38 36 35 34 34 35 35 34 32 31 29 28 28 29 29 30 32 34 35 35 34
71 71 72 70 63 60 63 63 63 65 64 63 63 62 63 65 67 67 66 68 71 75 79 81 81 83 86 88 90 89 87 85 81 76 75 72 64 52 43 37 34 33 33 33 33 35 37 38 40 41 41 43 44 44 44 43 42 41 40 40 40 40 40 42 42 39 38 38 36 35 35 35 34 33 32 31 30 29 29 30 30 31 32 34 36 37
73 72 74 73 67 63 66 66 64 64 64 63 63 64 65 65 66 67 67 68 72 74 77 79 81 83 85 88 89 87 85 82 78 73 72 70 61 48 39 34 33 32 33 34 36 37 38 39 40 41 42 43 43 43 44 44 43 42 41 40 40 39 39 41 42 40 38 39 38 36 36 35 33 33 32 32 31 30 30 31 31 31 31 33 36 38
74 74 74 76 72 68 69 69 65 65 66 65 66 66 66 66 66 68 68 69 74 77 78 80 82 84 86 87 88 86 83 80 76 71 70 68 59 44 34 30 30 31 34 36 38 40 41 41 41 42 42 43 42 42 42 42 42 41 41 40 39 38 39 40 41 40 37 37 38 37 36 35 34 32 31 31 31 30 31 32 32 32 32 33 35 37
76 76 76 78 77 73 72 71 68 67 67 67 68 68 66 66 68 70 69 70 75 81 82 83 86 87 88 88 87 86 83 79 74 70 68 66 58 44 35 32 31 33 37 38 40 42 43 43 44 43 43 44 44 43 43 43 41 40 41 40 40 40 40 40 41 39 37 37 37 37 36 35 34 32 30 30 29 29 31 32 33 32 33 34 36 37
78 78 77 79 79 76 74 74 71 70 70 70 69 69 69 68 69 71 71 71 75 80 83 86 87 88 89 89 87 86 84 80 75 70 68 67 60 48 39 37 37 38 40 42 42 43 44 45 45 45 46 46 46 46 47 47 47 45 44 43 43 43 42 42 42 40 38 37 37 37 36 35 33 31 30 28 28 28 30 32 33 33 34 34 35 35
79 80 79 79 81 79 77 76 74 72 73 72 71 71 71 71 71 73 74 73 76 79 81 85 87 87 88 88 87 86 84 80 75 70 67 67 63 53 43 40 41 41 42 42 43 43 44 44 45 48 50 51 50 49 49 49 50 50 49 48 47 46 44 43 42 41 38 37 36 36 35 34 32 30 29 28 27 27 29 31 32 33 33 33 33 34
80 81 80 80 81 81 80 79 77 75 73 74 74 72 72 71 72 74 74 73 77 80 82 86 88 87 88 88 87 85 82 78 73 69 66 65 64 58 47 41 42 42 43 43 44 44 44 44 47 50 52 52 52 51 51 51 51 50 49 49 47 45 44 42 41 40 38 35 34 35 34 33 31 28 27 27 27 27 28 29 29 29 30 31 31 31
81 82 82 81 81 83 82 80 79 76 74 75 76 74 73 73 75 78 78 76 79 83 86 88 89 88 88 88 87 84 81 76 70 66 64 62 62 60 51 43 42 43 43 45 46 47 47 47 50 53 52 51 51 51 52 53 51 49 47 46 45 42 41 39 38 37 35 32 31 32 31 30 28 26 25 25 26 27 27 26 25 26 26 26 26 26
83 83 83 82 82 83 83 81 79 78 77 78 78 76 76 77 78 82 84 82 82 85 87 88 89 89 90 89 87 85 82 77 71 65 61 58 57 57 52 45 43 44 43 44 46 47 49 50 52 54 52 51 51 51 51 51 49 47 45 43 41 39 36 35 34 33 31 30 29 28 28 27 25 24 23 24 25 24 23 22 22 22 22 22 22 23
83 83 83 83 82 83 83 82 81 80 78 79 78 77 77 79 79 82 84 83 84 86 87 88 90 91 91 90 89 87 84 81 76 70 64 58 54 54 51 45 42 43 43 44 45 45 47 49 52 53 51 50 50 51 51 49 48 46 44 41 38 34 31 30 29 29 28 27 25 24 23 22 21 21 22 22 22 20 19 19 19 19 19 20 20 21
84 84 85 84 83 83 83 82 81 79 78 79 80 78 78 80 80 82 83 83 84 87 88 91 92 92 92 91 90 88 87 85 81 75 70 64 56 54 52 46 40 40 42 43 44 46 46 48 50 51 50 49 48 48 49 48 47 46 43 38 32 28 26 24 22 22 23 22 21 20 19 18 19 19 20 19 17 16 15 15 16 17 17 18 18 18
86 86 85 85 84 82 83 83 81 77 76 80 81 79 79 81 81 83 85 85 87 89 91 93 93 92 93 92 90 88 86 84 83 78 73 68 61 56 53 49 42 39 40 40 41 44 46 47 50 50 48 47 46 46 46 45 44 44 41 34 28 24 21 18 15 15 17 17 16 15 14 15 16 16 16 15 13 12 13 14 14 15 15 14 11 8
87 86 85 85 85 83 83 84 83 78 77 80 82 81 81 82 83 84 87 89 91 93 93 93 93 92 93 92 90 88 85 82 81 78 73 70 65 58 54 51 44 40 40 41 41 43 45 46 49 50 48 46 45 43 43 41 40 41 38 32 26 21 16 13 9 10 11 11 10 10 11 12 13 13 12 11 10 11 12 12 12 10 7 4 3 5
87 88 87 85 86 84 82 84 84 82 80 81 83 83 84 85 86 87 89 90 92 94 95 94 93 92 91 90 89 87 84 80 78 76 73 69 66 61 56 52 47 40 39 40 41 43 45 46 47 49 47 44 42 41 40 38 37 36 34 29 25 20 15 12 9 7 6 6 7 8 9 9 9 9 8 8 8 9 8 7 5 2 3 6 7 6
88 89 88 87 87 86 83 84 85 83 82 83 86 87 86 87 89 89 90 92 93 95 96 95 93 92 91 90 88 85 83 80 77 75 72 67 65 61 56 53 48 41 38 39 40 42 45 46 46 47 45 42 40 37 37 35 33 32 30 26 23 19 15 12 9 7 6 5 6 7 6 6 6 6 6 6 5 4 1 1 3 6 7 8 8 7
88 89 88 87 88 87 84 84 85 83 82 85 87 87 87 88 88 89 91 93 94 95 96 96 94 93 92 91 89 85 83 80 77 74 72 68 64 60 55 52 48 41 37 38 40 41 44 45 44 44 43 40 36 34 33 32 31 29 26 22 19 16 14 12 10 8 8 6 5 4 4 5 5 5 5 3 2 3 5 7 8 8 8 9 9 8
88 89 89 87 88 87 85 86 87 84 83 85 86 86 86 87 88 89 91 94 95 96 97 96 95 93 91 90 89 86 83 81 78 74 71 68 64 60 55 50 47 42 37 37 39 40 43 45 44 42 40 38 33 30 30 29 28 26 22 19 17 16 14 12 11 10 8 6 4 4 5 5 5 4 5 6 6 7 8 9 9 8 9 10 10 10
89 90 90 88 88 88 88 88 88 84 83 85 84 84 85 86 88 90 91 93 96 96 96 96 94 93 91 89 88 85 83 80 77 73 69 66 63 59 54 49 45 40 36 36 38 40 43 45 43 39 37 35 31 27 26 25 24 22 20 18 17 15 14 13 11 9 7 6 6 6 6 5 6 7 9 9 9 9 9 8 8 9 10 11 11 12
89 90 90 89 88 90 90 90 88 85 83 84 85 84 85 86 88 89 92 94 95 96 95 95 94 92 90 88 86 84 81 78 76 73 69 65 62 58 54 49 43 38 34 35 38 40 42 43 40 36 34 32 28 24 23 22 20 19 19 18 17 15 14 12 9 8 7 8 8 7 6 6 8 11 11 10 10 9 8 7 7 9 9 10 12 13
90 91 91 91 89 90 91 91 90 86 83 83 85 85 86 88 89 90 92 94 95 95 95 94 93 92 90 87 84 83 80 77 75 73 69 65 61 57 52 47 42 36 33 34 38 40 43 43 38 33 31 29 25 21 20 18 17 17 18 17 16 15 12 9 9 8 9 10 9 7 5 7 10 12 11 10 9 7 6 6 7 8 9 10 11 12
90 91 93 93 92 92 92 92 93 92 88 86 86 87 87 90 92 92 93 95 97 97 96 95 93 91 89 86 83 82 80 77 75 73 69 64 60 55 50 44 40 35 33 35 38 41 44 42 36 30 29 28 23 19 18 16 15 15 16 16 16 12 9 8 9 10 11 12 8 5 7 8 11 11 9 9 7 6 5 5 7 9 10 11 12 11
90 91 93 95 94 94 94 94 94 95 94 92 90 89 90 92 94 95 96 98 99 99 98 96 94 91 88 85 83 83 82 79 76 73 69 64 59 54 48 42 38 34 33 35 38 41 42 39 33 29 28 26 22 17 15 15 14 13 14 15 13 9 7 8 10 12 13 11 6 7 8 8 9 9 8 7 7 6 5 5 7 9 9 11 13 13
91 92 93 95 96 96 96 95 93 94 96 95 92 91 92 94 96 98 98 99 99 98 97 97 95 92 89 86 84 84 83 80 77 73 69 63 57 52 46 40 35 32 32 34 39 42 40 34 29 27 26 25 22 17 12 13 13 12 13 13 10 7 7 9 11 14 13 8 7 8 7 7 8 7 6 6 7 7 6 5 6 7 8 11 13 14
Wind_Direction
327 327 329 330 329 329 327 327 327 327 327 325 324 323 321 320 320 318 315 313 311 311 311 310 310 310 308 308 308 306 305 304 304 304 304 305 306 306 307 307 307 306 305 304 303 303 302 301 300 299 297 296 295 294 293 291 290 288 287 286 284 283 281 278 276 273 271 270 268 266 264 262 259 256 253 252 252 252 251 250 250 249 249 251 252 252
329 329 330 330 329 328 328 328 328 326 326 324 323 322 321 320 320 318 314 312 312 312 314 312 310 311 309 307 308 307 306 306 306 307 307 308 309 309 309 309 308 307 306 306 305 304 304 303 303 302 300 298 296 295 293 291 290 288 287 286 285 284 281 279 277 274 272 270 269 267 265 262 259 256 254 252 251 251 251 250 248 248 247 246 247 249
332 332 332 331 329 328 328 327 326 325 324 323 322 322 322 319 318 318 315 314 315 315 315 313 312 312 308 307 308 308 309 310 310 310 311 312 312 312 311 311 310 308 307 307 306 305 304 304 303 302 300 298 296 294 292 291 289 287 286 285 284 282 280 278 276 274 273 272 270 268 266 263 260 257 254 253 251 250 250 250 249 247 246 246 244 244
334 333 333 331 330 328 327 326 325 324 322 322 322 322 321 320 319 321 320 318 318 316 314 312 312 313 310 310 311 311 313 314 314 314 315 315 314 313 313 312 311 310 308 308 307 306 305 303 302 300 298 296 294 293 292 291 290 289 287 286 285 283 281 279 277 275 273 272 270 269 267 265 262 258 255 252 251 250 249 249 249 249 247 246 245 244
336 335 334 332 331 329 327 327 326 326 324 323 323 322 323 323 323 323 322 321 320 317 314 312 314 317 316 315 317 318 318 318 318 318 317 316 315 314 313 311 310 309 308 307 306 305 304 302 301 299 297 296 295 294 294 293 292 291 290 289 287 285 283 281 279 277 275 273 270 268 267 265 262 260 256 253 250 249 249 249 248 249 248 247 246 245
338 336 334 332 331 330 329 329 329 329 327 325 325 325 325 325 325 323 322 321 321 320 318 316 316 320 322 322 324 323 321 319 318 317 316 315 314 313 312 310 309 308 307 306 305 304 303 302 300 299 298 297 297 296 296 295 294 293 292 290 288 286 284 283 281 278 276 274 271 268 266 264 262 259 257 255 251 248 248 249 249 248 248 247 246 245
339 336 333 332 332 332 332 331 331 330 328 327 328 328 327 326 325 324 323 322 323 323 323 322 323 326 328 326 324 322 319 319 318 317 316 315 314 313 312 311 309 308 307 306 305 304 303 302 300 299 299 299 298 298 297 295 294 293 292 290 288 287 285 284 282 279 277 275 272 269 266 264 262 260 257 255 253 250 248 247 248 248 247 246 246 245
340 338 335 334 334 335 334 333 331 331 331 330 330 329 327 326 325 325 326 325 325 326 327 328 328 327 327 324 321 320 321 322 322 320 318 316 315 314 312 311 310 309 308 307 306 305 303 302 300 300 299 299 298 297 296 295 294 294 293 291 290 288 286 284 283 281 279 276 274 271 268 265 263 261 259 255 254 252 250 247 246 246 246 246 245 245
343 342 340 338 338 337 336 335 334 334 333 332 331 329 328 327 328 328 328 327 327 328 328 329 327 325 324 324 323 325 327 326 325 322 319 318 316 313 312 311 311 311 310 309 307 305 303 301 301 300 300 300 299 298 297 296 295 295 294 292 291 289 287 285 283 282 280 278 276 274 271 268 265 263 261 259 255 253 251 249 247 245 244 245 245 244
347 345 343 341 341 340 338 337 336 335 335 335 333 332 332 332 331 329 328 327 328 328 327 327 327 324 324 326 327 329 330 328 325 322 320 317 314 312 312 313 312 311 310 308 307 305 303 302 302 302 303 302 301 300 298 296 294 293 293 291 289 288 286 283 281 281 281 280 279 278 275 273 269 265 264 262 259 256 253 251 249 247 245 243 243 243
348 346 344 344 343 342 341 340 338 337 337 335 333 333 334 333 331 329 328 328 328 329 329 327 326 324 324 329 331 329 327 325 322 319 317 314 312 313 313 313 312 311 309 309 307 305 304 303 303 303 303 302 301 299 296 294 292 291 290 289 287 285 283 282 283 282 281 280 280 280 278 277 273 269 267 265 263 260 257 254 251 249 247 244 243 242
349 347 347 346 345 344 344 343 340 338 337 334 333 333 334 333 333 331 330 330 331 332 330 327 326 325 327 331 332 328 324 322 319 316 314 313 314 314 314 313 313 312 311 310 307 304 303 303 303 303 302 300 298 297 295 293 291 290 289 288 286 286 286 285 285 284 283 281 281 281 280 279 276 273 270 268 266 264 262 259 255 252 250 247 245 243
350 349 348 347 347 345 344 343 340 337 336 336 334 333 333 335 336 334 333 333 331 331 331 330 328 328 330 332 331 326 323 321 319 317 316 316 317 316 316 316 315 313 311 307 304 303 303 303 304 305 303 301 299 298 297 295 292 290 289 289 291 291 290 288 288 288 287 285 282 280 280 278 277 275 273 270 269 267 266 264 261 258 254 251 248 245
351 351 349 348 347 345 343 341 340 338 337 337 334 333 335 336 335 334 332 331 329 332 335 334 331 330 331 333 330 326 323 322 321 319 319 319 319 318 318 317 314 312 308 305 304 305 306 307 308 307 306 304 302 301 301 298 293 291 292 294 297 295 292 291 292 293 293 291 287 283 280 278 275 273 272 271 270 268 268 267 265 263 260 256 252 249
352 350 349 348 346 344 342 340 341 340 337 336 335 335 335 333 332 331 330 330 330 333 337 336 334 332 332 334 330 325 325 324 322 321 321 321 321 320 319 316 313 311 309 309 310 311 312 312 309 309 310 307 303 304 303 298 293 295 298 301 301 298 296 295 295 295 296 295 294 290 284 280 276 273 270 269 268 267 266 266 266 265 264 262 258 254
354 351 349 349 346 343 342 342 342 341 337 337 337 336 333 331 330 329 331 332 330 331 334 335 335 333 332 332 328 325 326 325 323 324 324 322 321 320 318 316 315 314 314 315 316 316 316 314 310 310 310 308 306 306 305 299 297 300 303 303 302 300 299 298 298 299 299 299 300 297 292 283 276 273 270 268 267 266 263 263 266 267 266 265 263 260
355 354 350 348 347 344 344 342 342 340 338 338 337 335 332 331 330 330 333 333 330 330 333 333 333 332 333 332 328 328 329 327 326 326 324 322 322 321 320 320 319 318 318 319 319 318 317 315 314 313 312 311 309 308 306 301 299 301 303 303 302 301 301 301 303 305 306 305 304 302 298 288 276 272 271 269 267 266 265 264 265 266 266 266 265 262
355 356 353 349 348 346 344 342 342 341 339 337 335 334 332 332 332 332 332 332 331 330 332 333 333 333 336 335 331 331 330 328 328 326 324 324 324 324 324 323 322 320 320 320 319 319 318 317 318 317 317 316 313 310 308 303 301 302 304 303 301 300 302 304 306 308 308 307 306 303 298 291 280 273 272 271 270 269 268 267 266 266 266 266 265 263
354 356 356 351 349 347 344 342 341 341 339 336 334 334 333 333 334 333 331 331 331 330 330 333 335 336 338 336 332 333 331 329 328 327 326 327 327 327 326 325 323 322 321 321 320 319 319 319 319 320 321 319 315 312 309 304 303 304 304 301 298 299 301 304 306 306 306 306 305 302 296 290 283 277 274 274 273 272 271 270 269 267 266 265 265 264
354 355 356 354 351 348 345 343 341 340 338 336 335 335 334 333 333 333 332 331 330 330 329 331 335 339 339 336 334 333 331 329 329 328 327 328 329 328 326 325 323 323 322 321 321 319 320 319 317 319 322 320 315 312 309 306 305 305 304 300 296 295 297 299 302 303 304 303 301 298 293 288 283 277 274 273 271 271 271 271 270 268 267 266 264 263
354 354 355 355 353 350 348 346 343 340 338 337 336 335 334 332 331 331 332 332 331 331 330 329 334 341 340 336 335 333 330 331 330 328 328 329 330 328 326 325 324 323 322 321 321 320 320 319 317 319 321 318 314 311 309 307 306 305 304 301 298 295 294 296 298 300 301 301 299 295 292 288 282 276 271 269 269 269 269 268 268 268 266 265 263 262
354 354 355 355 355 353 350 347 344 342 340 338 337 336 334 331 330 330 331 333 333 333 331 329 334 341 341 336 335 332 330 332 330 329 330 331 330 328 327 326 324 323 322 321 320 320 320 320 320 320 319 316 313 311 310 308 307 306 304 301 299 298 296 297 298 298 299 299 298 296 292 288 282 276 271 268 267 268 267 266 265 265 264 262 260 260
353 354 354 355 355 353 352 349 346 345 342 339 338 337 334 332 331 330 330 333 334 334 333 331 334 341 340 335 333 331 331 332 331 331 332 331 330 329 328 327 325 324 322 320 321 321 321 322 322 321 318 314 312 311 311 310 308 308 305 302 300 299 298 298 299 299 298 298 298 297 294 290 283 277 272 269 267 266 266 265 263 262 262 261 259 258
353 353 354 354 355 354 353 351 348 347 344 340 337 335 335 334 332 331 331 333 334 334 335 334 335 340 339 335 333 332 332 333 333 333 334 332 330 331 330 329 327 326 324 321 321 323 323 323 322 320 317 313 312 312 312 310 309 308 307 304 302 300 299 300 300 301 300 298 297 296 295 291 286 280 274 270 267 265 265 264 263 261 260 261 260 258
353 353 352 352 352 352 353 352 350 349 348 343 337 334 335 335 332 331 332 334 334 334 336 336 335 339 340 336 334 333 334 335 335 335 334 332 332 333 332 331 328 326 324 322 323 324 322 319 317 317 315 313 312 312 312 311 309 308 306 304 303 301 300 301 301 302 302 300 297 294 293 292 288 284 278 272 268 265 264 263 262 261 260 260 260 259
354 353 352 352 350 349 350 351 348 347 347 345 340 336 336 335 333 332 334 336 334 334 337 338 335 338 340 336 334 335 335 336 337 337 335 333 334 335 334 331 329 326 324 324 325 322 318 315 314 312 310 309 309 310 310 309 308 306 305 302 301 301 300 301 302 302 301 300 297 294 293 291 291 288 283 276 271 267 265 264 263 262 260 259 257 256
354 353 352 352 351 347 347 348 345 343 344 345 343 339 336 334 334 335 336 337 335 334 339 340 337 337 339 336 335 337 337 337 339 338 335 334 337 337 334 332 329 326 325 324 323 319 316 314 312 310 308 307 307 307 307 306 305 304 302 300 299 299 300 301 301 301 300 298 296 294 292 290 290 289 285 281 276 271 267 265 263 262 260 259 256 254
353 353 352 353 352 347 346 348 345 342 343 343 342 340 337 335 337 336 335 337 336 335 339 341 340 339 339 337 337 338 338 338 339 338 335 336 339 338 334 332 328 325 324 322 319 317 315 314 312 310 309 308 308 307 306 304 303 301 300 299 297 297 298 299 299 300 300 297 294 292 289 288 288 287 285 283 280 277 273 268 264 262 260 259 257 254
352 352 352 352 353 349 347 349 346 342 343 343 341 340 339 338 337 336 336 338 337 337 339 341 341 341 340 339 339 339 339 339 339 338 335 337 339 337 335 334 330 327 325 324 322 321 319 317 315 313 312 310 308 307 306 304 302 300 298 297 297 297 298 298 299 299 298 295 293 290 287 286 285 284 284 283 282 281 279 274 269 263 260 258 256 254
352 352 351 351 353 350 348 349 348 343 344 344 341 341 341 339 337 337 339 339 338 338 339 340 341 342 341 340 339 340 340 339 339 337 335 337 339 338 337 333 329 329 330 330 329 327 325 323 320 317 314 311 309 307 305 303 301 299 298 297 297 298 298 298 298 298 296 292 291 289 287 284 282 281 281 282 282 283 282 279 274 268 262 258 255 253
351 352 351 350 351 350 349 350 349 345 345 345 343 342 341 340 338 338 342 342 338 339 341 341 341 343 342 341 340 340 339 339 339 337 336 338 340 338 335 331 329 332 334 333 332 331 328 327 325 323 320 316 313 310 306 303 301 300 299 298 298 298 298 297 297 297 295 292 290 288 287 284 281 278 278 279 282 283 283 281 278 273 267 260 256 253
351 351 350 349 350 351 350 351 350 347 346 346 345 343 341 340 341 341 343 344 340 340 342 342 343 344 343 343 342 340 339 339 340 339 337 339 340 337 333 333 334 336 336 335 335 333 331 329 327 326 323 320 317 314 310 307 304 300 299 298 298 297 297 296 295 296 295 292 290 289 287 285 281 278 276 277 280 282 283 283 281 277 271 265 260 256
350 351 350 349 350 351 350 351 350 348 347 347 346 344 342 342 343 343 345 346 342 341 342 342 343 344 344 344 343 341 340 341 342 341 338 339 341 338 335 336 338 338 337 337 336 334 332 330 328 326 324 321 317 314 311 308 305 301 298 296 294 293 293 292 293 294 293 291 290 289 287 286 283 279 276 276 277 279 282 283 282 278 274 270 266 261
351 351 351 350 350 351 351 352 351 349 347 348 348 346 343 343 344 345 348 346 342 342 342 341 342 343 343 343 343 343 343 342 343 342 339 339 341 339 336 336 338 338 337 336 336 334 331 329 329 328 326 323 320 316 313 309 306 303 300 296 292 289 288 287 287 289 290 289 289 289 288 287 284 280 277 277 277 279 281 282 281 279 275 271 267 263
351 351 351 350 350 350 351 352 352 351 348 347 347 346 344 344 344 345 348 347 342 342 343 342 343 343 342 342 344 344 344 344 343 342 340 339 340 339 335 334 335 336 336 336 336 334 332 331 332 332 329 325 323 320 318 316 312 308 304 299 295 291 286 283 281 282 284 286 287 287 287 287 285 280 278 278 279 281 282 282 280 277 273 270 267 265
351 351 352 351 350 350 351 352 352 351 349 348 347 346 345 345 344 344 348 349 344 343 344 343 343 342 341 342 343 344 344 345 345 344 341 339 339 337 334 332 333 335 336 337 337 336 334 334 335 335 332 327 325 324 322 321 318 314 309 304 299 295 289 283 278 277 279 282 284 285 286 287 284 280 278 279 282 283 282 280 276 272 270 270 270 271
352 352 352 351 351 351 351 352 352 351 349 349 348 346 345 346 346 345 347 348 346 344 344 343 342 342 342 342 343 343 344 345 347 347 344 340 338 337 334 331 332 335 336 337 338 337 337 338 338 336 333 329 327 326 325 324 323 320 316 311 305 300 293 285 278 275 276 279 282 284 285 285 282 278 278 281 284 283 278 273 270 270 273 275 276 276
353 353 352 352 352 351 351 352 352 352 350 349 349 347 346 346 346 345 346 347 346 345 344 343 342 342 342 343 343 343 344 345 347 348 346 343 340 338 335 331 330 333 336 337 337 337 338 339 339 337 334 331 330 328 328 328 327 325 322 317 311 305 299 289 279 274 274 277 281 284 284 282 279 279 282 284 282 276 269 267 271 276 280 281 280 279
353 353 352 352 353 352 352 352 353 352 350 348 349 348 347 346 345 345 346 347 346 345 344 344 343 342 342 343 344 343 343 344 346 347 346 345 343 340 337 333 328 331 336 337 336 337 339 340 340 338 335 334 332 331 331 332 333 333 331 326 319 313 307 297 284 274 273 276 282 284 282 279 280 283 284 282 275 270 269 274 281 285 286 286 286 286
354 354 353 353 353 353 352 353 353 352 349 347 348 348 347 346 346 345 346 347 347 346 345 345 344 343 342 343 344 344 343 343 344 345 344 344 343 341 339 336 330 328 333 335 336 338 339 341 342 340 337 336 335 334 335 337 339 341 341 338 333 326 318 309 293 277 276 280 284 284 280 280 284 284 280 275 272 276 283 288 291 291 292 294 296 303
354 354 354 354 353 353 353 353 354 353 350 348 348 348 347 347 348 347 347 347 347 346 346 345 345 344 343 343 343 344 344 342 342 343 343 342 342 341 339 338 334 329 332 335 336 338 340 342 343 342 340 339 337 337 339 341 343 348 350 350 349 345 339 331 314 294 290 289 287 286 285 287 285 279 276 279 286 293 296 296 295 295 300 321 14 43
354 354 355 354 354 354 353 352 354 354 351 349 349 348 347 347 348 348 348 347 346 345 346 346 345 344 343 343 343 343 343 342 341 341 342 341 340 339 339 339 336 331 332 335 336 338 341 344 345 343 342 340 339 340 343 343 345 350 354 357 359 359 357 353 341 326 316 306 299 298 293 289 284 283 290 300 303 303 301 298 299 318 61 66 57 41
354 355 356 355 354 354 354 353 354 353 351 349 349 349 349 348 348 347 347 347 347 346 345 345 345 345 343 343 343 343 342 342 341 341 341 341 340 339 338 338 337 333 332 335 337 340 342 345 345 343 343 342 340 343 346 346 346 349 353 356 0 2 3 3 2 358 350 334 320 310 300 296 298 306 319 322 318 318 327 72 84 82 72 56 38 19
354 355 356 356 355 355 355 354 354 353 351 349 349 349 349 348 347 346 346 346 347 346 345 345 345 345 344 343 343 343 343 342 342 342 342 341 341 339 338 338 338 335 334 337 339 342 343 345 345 344 344 343 342 345 349 350 349 351 354 359 4 9 12 13 10 5 358 352 346 334 322 324 332 342 353 10 51 89 98 95 88 80 62 41 27 16
355 355 356 357 356 355 354 353 354 354 352 351 350 349 348 348 348 347 347 346 346 346 346 345 345 345 345 344 343 343 344 343 342 342 342 341 340 339 338 339 338 335 335 338 340 343 345 346 345 344 345 344 343 346 353 355 354 356 0 7 12 15 14 9 4 3 8 18 24 2 343 349 10 35 67 90 99 98 94 88 79 64 44 31 23 15
355 354 356 356 356 355 354 354 355 355 353 351 351 350 349 349 349 348 347 346 346 346 346 345 345 345 345 345 343 343 344 343 341 342 342 340 339 339 339 340 340 337 336 339 343 345 347 346 344 344 346 346 344 347 355 358 358 359 4 10 13 11 5 2 5 15 29 34 18 359 357 22 59 90 100 97 92 89 87 82 68 49 33 23 17 12
354 354 355 355 355 354 355 355 355 356 354 352 352 352 350 350 350 349 347 347 347 347 346 346 346 346 346 346 344 344 345 344 341 341 342 342 340 339 339 340 341 340 338 341 345 346 346 345 344 346 348 348 346 349 356 358 357 358 1 5 9 6 1 5 18 31 35 22 4 0 18 61 95 106 98 87 83 82 78 69 55 39 25 15 13 10
354 354 354 354 354 354 354 354 355 356 356 353 353 353 352 351 351 350 349 347 347 347 347 347 347 347 347 347 345 344 344 344 342 342 343 343 341 340 340 341 342 342 342 343 346 347 346 345 346 348 350 350 348 349 356 357 352 352 355 0 4 5 6 18 31 32 22 9 2 12 51 91 112 109 90 79 82 80 68 55 39 25 17 15 15 9
354 353 353 353 354 354 354 354 355 356 357 356 355 354 353 352 352 351 350 348 348 349 348 348 348 348 348 348 346 345 345 345 344 343 344 344 342 340 341 342 343 345 345 346 348 348 345 344 347 350 352 354 350 348 356 359 351 347 351 357 2 9 19 30 31 24 12 5 11 47 78 101 117 108 85 78 81 73 59 40 21 16 16 14 9 7
354 354 353 353 353 354 354 355 355 356 357 357 356 355 354 352 352 351 350 350 350 349 348 348 349 349 350 349 347 346 345 346 345 344 344 344 343 341 341 343 345 347 348 348 349 348 345 345 349 353 355 356 352 348 356 2 355 347 349 355 3 21 34 31 25 16 8 10 43 87 91 106 120 109 83 75 75 64 51 34 22 22 18 6 359 2
354 354 354 354 354 354 355 356 356 356 356 357 356 355 354 353 352 352 351 351 351 350 349 349 349 350 351 351 350 347 346 346 345 344 344 344 344 342 342 344 345 348 350 351 350 349 348 349 353 355 356 357 354 350 357 6 360 348 348 356 12 38 36 23 16 10 10 31 84 98 92 104 117 111 86 68 62 63 66 58 43 30 13 358 356 2